Location: Unspecified
(50.8517°N, 0.0000°E)
Time: 04:14:58
(UTC+00:00)

NOAA 16 DEB - Visible Passes

Search period start: 04 April 2026 00:00
Search period end: 14 April 2026 00:00
Orbit: 753 x 778 km, 98.9° (Epoch: 28 March)

Date Brightness Start Highest point End Pass type
(mag) Time Alt. Az. Time Alt. Az. Time Alt. Az.
4 Apr ? 00:46:05 13° E 00:48:36 17° NE 00:51:52 10° NNE visible
4 Apr ? 02:26:16 71° SSE 02:26:52 88° ENE 02:32:00 10° NNW visible
4 Apr ? 04:06:28 15° W 04:06:30 15° W 04:09:27 10° NW visible
5 Apr ? 01:48:55 37° ESE 01:50:16 46° ENE 01:55:07 10° N visible
5 Apr ? 03:29:06 30° W 03:29:22 30° W 03:33:50 10° NW visible
6 Apr ? 01:11:33 19° E 01:13:49 25° ENE 01:17:57 10° N visible
6 Apr ? 02:51:43 53° SW 02:52:26 59° WSW 02:57:28 10° NNW visible
7 Apr ? 00:34:52 10° E 00:37:34 15° NE 00:40:16 10° NNE visible
7 Apr ? 02:14:21 49° SE 02:15:40 72° ENE 02:20:46 10° NNW visible
7 Apr ? 03:54:32 19° W 03:55:08 19° W 03:58:44 10° NW visible
8 Apr ? 01:36:57 26° ESE 01:39:05 38° ENE 01:43:45 10° N visible
8 Apr ? 03:17:08 34° WSW 03:18:02 37° W 03:22:45 10° NNW visible
9 Apr ? 00:59:32 12° E 01:02:41 21° NE 01:06:25 10° N visible
9 Apr ? 02:39:43 48° S 02:41:07 74° WSW 02:46:14 10° NNW visible
9 Apr ? 04:19:54 11° W 04:20:57 12° W 04:22:42 10° WNW visible
10 Apr ? 00:24:34 10° ENE 00:26:26 12° NE 00:28:20 10° NNE visible
10 Apr ? 02:02:18 33° SE 02:04:23 58° ENE 02:09:23 10° N visible
10 Apr ? 03:42:29 22° WSW 03:43:41 24° W 03:47:44 10° NW visible
11 Apr ? 01:24:52 18° ESE 01:27:50 31° ENE 01:32:14 10° N visible
11 Apr ? 03:05:03 35° SW 03:06:36 46° W 03:11:30 10° NNW visible
12 Apr ? 00:48:09 10° E 00:51:26 18° NE 00:54:43 10° NNE visible
12 Apr ? 02:27:36 37° SSE 02:29:43 90° NE 02:34:49 10° NNW visible
12 Apr ? 04:07:47 13° WSW 04:09:21 15° W 04:12:12 10° NW visible
13 Apr ? 01:50:09 23° SE 01:53:00 47° ENE 01:57:51 10° N visible
13 Apr ? 03:30:20 23° SW 03:32:07 29° W 03:36:32 10° NW visible
